Hanford, WA

2:04 AM PST on January 24, 2018 (GMT -0800)
Hanford

Weather History for KHMS - March, 2013

Change the Weather History Date:

Wednesday, March 6, 2013

  Actual Average Record
Temperature  
Mean Temperature 38 °F -  
Max Temperature 41 °F 52 °F 69 °F (2005)
Min Temperature 34 °F 32 °F 23 °F (2008)
Degree Days  
Heating Degree Days 28    
Moisture  
Dew Point 36 °F    
Average Humidity 94    
Maximum Humidity 99    
Minimum Humidity 76    
Precipitation  
Precipitation 0.18 in - - ()
Sea Level Pressure  
Sea Level Pressure 29.70 in    
Wind  
Wind Speed 10 mph (WNW)    
Max Wind Speed 15 mph    
Max Gust Speed -    
Visibility 14 miles    
Events Rain    
Averages and records for this station are not official NWS values.
T = Trace of Precipitation, MM = Missing Value Source: NWS Daily Summary

Daily Weather History Graph

Daily Weather History Graph

Search for Another Location

Airport or City:

Trip Planner

Search our weather history database for the weather conditions in past years. The results will help you decide how hot, cold, wet, or windy it might be!

Date:

Astronomy

Mar. 06, 2013 Rise Set
Actual Time 6:27 AM PST 5:52 PM PST
Civil Twilight 5:57 AM PST 6:22 PM PST
Nautical Twilight 5:22 AM PST 6:57 PM PST
Astronomical Twilight 4:47 AM PST 7:32 PM PST
Moon 2:56 AM PST (3/6) 12:24 PM PST (3/6)
Length of Visible Light 12h 24m
Length of Day
11h 24m
Waning Crescent, 29% of the Moon is Illuminated
Mar 6
Waning Crescent
Mar 11
New
Mar 19
First Quarter
Mar 27
Full
Apr 2
Last Quarter

Hourly Weather History & Observations

Time (PST) Temp. Windchill Dew Point Humidity Pressure Visibility Wind Dir Wind Speed Gust Speed Precip Events Conditions
12:50 AM 36.3 °F 28.4 °F 35.2 °F 96% 29.80 in 15.0 mi WNW 11.5 mph - 0.02 in Rain Light Rain
2:50 AM 35.2 °F 27.6 °F 34.3 °F 97% 29.75 in 15.0 mi WNW 10.4 mph - N/A Rain Light Rain
3:50 AM 35.1 °F 27.9 °F 34.5 °F 98% 29.72 in 12.0 mi West 9.2 mph - 0.02 in Rain Light Rain
4:50 AM 35.4 °F 29.0 °F 34.9 °F 98% 29.70 in 12.0 mi WNW 8.1 mph - 0.03 in Rain Light Rain
5:50 AM 34.9 °F 26.6 °F 34.3 °F 98% 29.68 in 15.0 mi WNW 11.5 mph - 0.03 in Rain Light Rain
6:50 AM 35.1 °F 26.9 °F 34.3 °F 97% 29.66 in 15.0 mi WNW 11.5 mph - 0.01 in Rain Light Rain
7:50 AM 35.8 °F 27.8 °F 35.1 °F 97% 29.64 in 15.0 mi NW 11.5 mph - 0.02 in Rain Light Rain
8:50 AM 36.5 °F 28.7 °F 36.3 °F 99% 29.63 in 15.0 mi WNW 11.5 mph - 0.00 in   Overcast
9:50 AM 38.1 °F 30.7 °F 36.3 °F 93% 29.65 in 15.0 mi WNW 11.5 mph - 0.00 in Rain Light Rain
10:50 AM 38.3 °F 29.7 °F 37.0 °F 95% 29.64 in 15.0 mi WNW 15.0 mph - 0.02 in Rain Light Rain
11:50 AM 40.8 °F 33.7 °F 39.0 °F 93% 29.64 in 15.0 mi WNW 12.7 mph - N/A Rain Light Rain
12:50 PM 40.1 °F 33.6 °F 38.5 °F 94% 29.65 in 15.0 mi WNW 10.4 mph - 0.00 in Rain Light Rain
1:50 PM 39.9 °F 33.4 °F 37.4 °F 91% 29.65 in 15.0 mi West 10.4 mph - 0.00 in   Overcast
2:50 PM 39.6 °F 34.0 °F 37.0 °F 91% 29.66 in 15.0 mi WNW 8.1 mph - N/A   Overcast
3:50 PM 40.1 °F 34.7 °F 36.9 °F 88% 29.69 in 15.0 mi WNW 8.1 mph - N/A   Overcast
4:50 PM 39.7 °F 36.5 °F 37.4 °F 91% 29.70 in 15.0 mi WNW 4.6 mph - 0.00 in Rain Light Rain
5:50 PM 39.0 °F 35.7 °F 38.1 °F 97% 29.73 in 10.0 mi South 4.6 mph - 0.04 in Rain Light Rain
6:50 PM 39.4 °F 33.8 °F 38.3 °F 96% 29.75 in 12.0 mi West 8.1 mph - 0.01 in Rain Light Rain
10:50 PM 41.9 °F 36.3 °F 38.1 °F 86% 29.85 in 15.0 mi West 9.2 mph - N/A   Overcast
11:50 PM 41.5 °F 37.1 °F 34.5 °F 76% 29.87 in 15.0 mi West 6.9 mph - N/A   Overcast